Weather Roundup
Issued by NWS Springfield, MO

Home | Current Version | Previous Version | Text Only | Print | Product List | Glossary On
Versions: 1 2 3 4 5 6 7 8 9 10 11 12 13 14 15 16 17 18 19 20 21 22 23 24 25 26 27 28 29 30 31 32 33 34 35 36 37 38 39 40 41 42 43 44 45 46 47 48 49 50
000
NZUS99 KSGF 221807
HRRSGF

HOURLY WEATHER
NATIONAL WEATHER SERVICE SPRINGFIELD MO
1200 PM CST MON DEC 22 2014

......SGF CWA......

CITY           SKY/WX    TMP DP  RH WIND       PRES   REMARKS
SPRINGFIELD    CLOUDY    47  44  90 SE13      29.55F
6HR MIN TEMP:  42; 6HR MAX TEMP:  47; 6HR PCP:  0.19;

JOPLIN         CLOUDY    48  47  96 S9        29.54F FOG
6HR MIN TEMP:  45; 6HR MAX TEMP:  48; 6HR PCP: TRACE;

WEST PLAINS    CLOUDY    47  45  93 S10       29.61F
6HR MIN TEMP:  43; 6HR MAX TEMP:  47; 6HR PCP:  0.07;

ROLLA          LGT RAIN  46  43  89 SE9       29.58F FOG
6HR MIN TEMP:  40; 6HR MAX TEMP:  46; 6HR PCP:  0.08;

OSAGE BEACH    CLOUDY    46  43  87 S9        29.57F
BRANSON        CLOUDY    48  46  93 S12       29.58F

......SURROUNDING SGF CWA......

CITY           SKY/WX    TMP DP  RH WIND       PRES   REMARKS
CHANUTE        LGT RAIN  47  47 100 SW10      29.53F
PARSONS        CLOUDY    49  49 100 SW7       29.54F FOG
COFFEYVILLE    LGT RAIN  49  48  97 SW6       29.54F FOG
EMPORIA        CLOUDY    46  45  96 SW10      29.51F
GROVE OK       CLOUDY    52  52 100 S7        29.55F FOG
ROGERS AR      LGT RAIN  48  47  96 S9        29.56F
SILOAM SPRINGS CLOUDY    48  43  81 S8        29.57F
HARRISON AR    CLOUDY    47  47 100 SE13      29.57F
NEAR YELLVILLE CLOUDY    48  45  87 S3        29.60F

......KANSAS AND MISSOURI......

CITY           SKY/WX    TMP DP  RH WIND       PRES   REMARKS
KANSAS CTY INT LGT RAIN  43  43 100 S10       29.50F FOG
DOWNTOWN KC    CLOUDY    45  43  93 S7        29.51F
COLUMBIA       LGT RAIN  45  43  93 SE9       29.58F FOG
SEDALIA        RAIN      45  43  93 SE6       29.56F FOG
ST JOSEPH      LGT RAIN  44  43  96 SE8       29.51F FOG
ST LOUIS       LGT RAIN  47  44  90 SE10      29.66F FOG
SPIRIT OF STL  CLOUDY    46  43  89 VRB3      29.64F
KIRKSVILLE     CLOUDY    40  40 100 SE10      29.58F FOG     WCI  33
WICHITA        PTSUNNY   50  40  68 NW16G26   29.56F
TOPEKA         LGT RAIN  48  45  89 SW9       29.50F FOG
OLATHE         CLOUDY    44  43  96 S8        29.50F FOG

......TENNESSEE......

CITY           SKY/WX    TMP DP  RH WIND       PRES   REMARKS
MEMPHIS        CLOUDY    56  51  84 S13       29.73F
NASHVILLE      CLOUDY    54  46  74 SE14      29.83F

......ARKANSAS.......

CITY           SKY/WX    TMP DP  RH WIND       PRES   REMARKS
FAYETTEVILLE   LGT RAIN  48  48 100 S6        29.57F FOG
FT SMITH       CLOUDY    51  49  92 NE5       29.58F FOG
LITTLE ROCK    CLOUDY    53  50  89 S8        29.65F

......OKLAHOMA.......

CITY           SKY/WX    TMP DP  RH WIND       PRES   REMARKS
TULSA          CLOUDY    51  49  92 VRB5      29.57F
PONCA CITY     CLOUDY    52  47  83 NW9       29.55F HAZE
MCALESTER      CLOUDY    56  47  71 W10       29.57F
OKLAHOMA CITY  CLOUDY    51  42  71 N10       29.57F

......IOWA............

CITY           SKY/WX    TMP DP  RH WIND       PRES   REMARKS
DES MOINES     LGT RAIN  41  38  89 SE13      29.55F FOG
QUAD CITIES    LGT RAIN  37  34  89 E15G24    29.65F FOG     WCI  28

......ILLINOIS........

CITY           SKY/WX    TMP DP  RH WIND       PRES   REMARKS
QUINCY         CLOUDY    40  39  97 SE9       29.61F FOG     WCI  34
CHICAGO        LGT RAIN  35  31  85 E9        29.80F FOG     WCI  28




USA.gov is the U.S. government's official web portal to all federal, state and local government web resources and services.